Location: Newark
(47.5833°N, 8.1500°E)
Time: 18:00:33
(UTC+00:00)

Tiros 1 despin weight - Pass Details

Date: 05 November 2020
Orbit: 593 x 642 km, 48.2° (Epoch: 27 November)

Event Time Altitude Azimuth Distance (km) Brightness Sun altitude
Rises 19:50:59 0° 208° (SSW) 2,900 - -38.3°
Reaches altitude 10° 19:53:42 10° 193° (SSW) 1,988 - -38.8°
Maximum altitude 19:57:14 22° 142° (SE) 1,340 - -39.3°
Drops below altitude 10° 20:00:46 10° 91° (E) 1,971 - -39.9°
Sets 20:03:26 0° 77° (ENE) 2,870 - -40.3°
